986  
ASUS41 KPHI 111311  
RWRPHI  
 
REGIONAL WEATHER ROUNDUP  
NATIONAL WEATHER SERVICE MOUNT HOLLY NJ  
800 AM EST SUN DEC 11 2016  
 
NOTE: "FAIR" INDICATES FEW OR NO CLOUDS BELOW 12,000 FEET WITH NO  
SIGNIFICANT WEATHER AND/OR S TO VISIBILITY
.  
 
* = STATION DOES NOT REPORT PRECIPITATION (E.G. RAIN, SNOW, ETC.)  
OR FOG.
 
 
NJZ015>026-111400-  
SOUTHERN NEW JERSEY  
 
CITY SKY/WX TMP DP RH WIND PRES REMARKS
 
POMONA CLOUDY 28 17 63 CALM 30.58R  
WILDWOOD* CLOUDY 30 19 63 CALM 30.59R  
MILLVILLE CLOUDY 27 22 81 CALM 30.58R  
WRIGHTSTOWN CLOUDY 27 20 72 SW3 30.53R  
MOUNT HOLLY CLOUDY 28 19 69 CALM 30.57R  
TRENTON CLOUDY 27 17 66 CALM 30.55R  
 

 
NJZ001>014-111400-  
NORTHERN NEW JERSEY  
 
CITY SKY/WX TMP DP RH WIND PRES REMARKS
 
SUSSEX MOCLDY 19 17 92 CALM 30.51R  
ANDOVER* N/A 22 18 85 CALM 30.52R  
MORRISTOWN MOCLDY 23 23 100 CALM 30.56R  
NEWARK CLOUDY 28 17 63 W6 30.55R WCI 22  
TETERBORO PTCLDY 27 17 66 SW3 30.54R  
CALDWELL CLOUDY 26 17 68 CALM 30.55R  
SOMERVILLE CLOUDY 24 19 81 CALM 30.54R  
ALLAIRE* CLOUDY 26 18 71 SW5 30.57R WCI 20  
TOMS RIVER* CLOUDY 25 20 81 CALM 30.58R  
 

 
PAZ043-044-047-054-055-060>062-066>071-111400-  
EASTERN PENNSYLVANIA  
 
CITY SKY/WX TMP DP RH WIND PRES REMARKS
 
PHILADELPHIA CLOUDY 30 15 53 CALM 30.58R  
NORTH PHILA CLOUDY 29 18 63 CALM 30.58R  
BLUE BELL* CLOUDY 27 18 69 CALM 30.54R  
DOYLESTOWN CLOUDY 27 17 66 CALM 30.53R  
QUAKERTOWN* CLOUDY 25 18 74 CALM 30.53R  
PERKASIE* CLOUDY 25 16 68 CALM 30.53R  
POTTSTOWN CLOUDY 25 16 68 SW3 30.56R  
LANCASTER CLOUDY 26 20 77 CALM 30.54R  
COATESVILLE CLOUDY 27 18 69 SW3 30.54S  
READING CLOUDY 26 18 71 CALM 30.54R  
ALLENTOWN CLOUDY 26 17 68 W5 30.53R WCI 20  
MOUNT POCONO CLOUDY 17 12 80 W3 30.40R  
HAZLETON CLOUDY 21 16 79 CALM 30.46R  
LEHIGHTON N/A 25 21 86 CALM 30.53R  
WILKES BARRE CLOUDY 23 17 78 CALM 30.47R  
 

 
DEZALL-MDZ008-012-015-019-020-111400-  
DELAWARE AND EASTERN MARYLAND  
 
CITY SKY/WX TMP DP RH WIND PRES REMARKS
 
WILMINGTON CLOUDY 28 18 66 W5 30.58R WCI 23  
DOVER CLOUDY 28 20 71 CALM 30.57R  
GEORGETOWN CLOUDY 29 18 63 CALM 30.58R  
EASTON CLEAR 30 21 69 CALM 30.60R  
ABERDEEN CLOUDY 28 20 72 CALM 30.58S  
PATUXENT CLOUDY 31 21 66 E6 30.56R WCI 25  
OCEAN CITY CLOUDY 29 19 66 NW3 30.58R  
WALLOPS ISLAND PTCLDY 28 19 69 CALM 30.58R  
CAMBRIDGE CLOUDY 30 21 69 CALM 30.56S  
SALISBURY CLOUDY 29 20 69 CALM 30.58R  
 

 
PAZ001-021-NYZ056-072-MDZ011-DCZ001-111400-  
OTHER NEARBY LOCATIONS  
 
CITY SKY/WX TMP DP RH WIND PRES REMARKS
 
HARRISBURG CLOUDY 28 17 63 S6 30.53F WCI 22  
STATE COLLEGE LGT SNOW 21 19 93 CALM 30.43S  
WILLIAMSPORT LGT SNOW 23 18 81 E5 30.49S WCI 17  
BINGHAMTON CLOUDY 16 12 84 SW7 30.39R WCI 6  
NEW YORK CITY PTCLDY 29 15 56 W6 30.56R WCI 23  
BALTIMORE MOCLDY 29 16 58 N3 30.55F  
WASHINGTON DC CLOUDY 31 17 56 CALM 30.57R  
 

 
 
 
CLICK HERE TO GO TO PREVIOUS BULLETINS.

The Nexlab PA Page
The Nexlab NJ Page
The Nexlab DE Page
The Nexlab MD Page Main Text Page